This demonstration page uses our WeatherBlox Daily Observations layout. Learn more.

Left ArrowRight Arrow

34.74481, -87.66753

Hourly Observations for July 7, 2019

Temp ( °F °C ) Dew Point ( °F °C ) Humidity (%) Winds ( mph kmh ) Pressure ( in mb ) Visibility ( mi km ) Precip ( " mm )
12:53 am 00:53 Clear 77 25 73 22.8 88 88 Calm 29.95 1014 10 16 0.00 0.00
1:40 am 01:40 Mostly Cloudy 76 24.4 74 23.3 94 94 NNE 3 6 29.95 1014 10 16 0.00 0.00
1:53 am 01:53 Cloudy 78 25.6 74 23.3 87 87 Calm 29.95 1014 10 16 0.00 0.00
2:17 am 02:17 Cloudy 77 25 73 22.8 88 88 Calm 29.95 1014 10 16 0.00 0.00
2:40 am 02:40 Partly Cloudy 76 24.4 73 22.8 91 91 Calm 29.94 1014 10 16 0.00 0.00
2:53 am 02:53 Clear 75 23.9 72 22.2 90 90 Calm 29.93 1014 10 16 0.00 0.00
3:53 am 03:53 Mostly Clear 75 23.9 72 22.2 90 90 WSW 3 6 29.94 1014 10 16 0.00 0.00
4:53 am 04:53 Mostly Cloudy 75 23.9 72 22.2 90 90 WSW 5 7 29.95 1014 10 16 0.00 0.00
5:53 am 05:53 Cloudy 76 24.4 73 22.8 91 91 NW 6 9 29.97 1015 10 16 0.01 0.25
6:08 am 06:08 Cloudy with Light Rain 75 23.9 73 22.8 94 94 WNW 10 17 29.98 1015 10 16 0.04 1.02
6:32 am 06:32 Cloudy with Heavy Rain 74 23.3 72 22.2 94 94 WNW 5 7 29.97 1015 10 16 0.32 8.13
6:53 am 06:53 Cloudy with Light Rain 74 23.3 72 22.2 94 94 NW 5 7 29.98 1015 10 16 0.34 8.64
7:12 am 07:12 Cloudy with Light Rain 75 23.9 72 22.2 90 90 Calm 29.98 1015 10 16 0.01 0.25
7:33 am 07:33 Cloudy 75 23.9 72 22.2 90 90 W 5 7 29.99 1016 10 16 0.01 0.25
7:53 am 07:53 Cloudy 75 23.9 73 22.8 94 94 WNW 3 6 30.00 1016 10 16 0.01 0.25
8:00 am 08:00 Cloudy with Light Rain 75 23.9 72 22.2 90 90 WNW 3 6 30.00 1016 10 16 0.00 0.03
8:53 am 08:53 Cloudy with Nearby Thunderstorms 76 24.4 72 22.2 88 88 N 5 7 30.00 1016 10 16 0.00 0.03
9:27 am 09:27 Mostly Cloudy with Light Rain 76 24.4 72 22.2 88 88 N 7 11 30.01 1016 10 16 0.02 0.51
9:53 am 09:53 Mostly Cloudy with Light Rain 76 24.4 72 22.2 88 88 WNW 8 13 30.01 1016 10 16 0.02 0.51
10:53 am 10:53 Partly Cloudy with Light Rain 76 24.4 73 22.8 91 91 WSW 7 11 30.01 1016 10 16 0.01 0.25
11:04 am 11:04 Partly Cloudy with Light Rain 75 23.9 73 22.8 94 94 W 10 17 30.00 1016 10 16 0.00 0.03
11:53 am 11:53 Mostly Cloudy with Light Rain 77 25 72 22.2 85 85 Calm 29.98 1015 10 16 0.01 0.25
12:53 pm 12:53 Mostly Cloudy 80 26.7 73 22.8 79 79 WNW 3 6 29.97 1015 10 16 0.00 0.03
1:53 pm 13:53 Sunny 84 28.9 74 23.3 72 72 WNW 7 11 29.93 1014 10 16 0.00 0.00
2:53 pm 14:53 Sunny 87 30.6 75 23.9 67 67 W 7 11 29.92 1013 10 16 0.00 0.00
3:53 pm 15:53 Sunny 89 31.7 76 24.4 65 65 WNW 7 11 29.91 1013 10 16 0.00 0.00
4:53 pm 16:53 Sunny 90 32.2 75 23.9 62 62 NNW 7 11 29.88 1012 10 16 0.00 0.00
5:53 pm 17:53 Mostly Sunny 89 31.7 75 23.9 63 63 W 8 13 29.90 1012 10 16 0.00 0.00
6:53 pm 18:53 Sunny with Nearby Thunderstorms 88 31.1 75 23.9 66 66 NW 6 9 29.90 1013 10 16 0.00 0.00
7:35 pm 19:35 Cloudy with Strong Thunderstorms 73 22.8 68 20 84 84 NE 8 13 29.91 1013 10 16 0.12 3.05
7:53 pm 19:53 Mostly Cloudy with Thunderstorms 74 23.3 69 20.6 85 85 WSW 7 11 29.93 1014 10 16 0.15 3.81
8:21 pm 20:21 Mostly Cloudy with Nearby Thunderstorms 74 23.3 69 20.6 85 85 SW 9 15 29.93 1014 10 16 0.00 0.00
8:35 pm 20:35 Partly Cloudy 74 23.3 69 20.6 85 85 SSW 3 6 29.93 1014 10 16 0.00 0.00
8:53 pm 20:53 Mostly Clear 74 23.3 70 21.1 88 88 S 3 6 29.92 1013 10 16 0.00 0.00
9:53 pm 21:53 Clear 74 23.3 70 21.1 88 88 NNE 7 11 29.92 1013 10 16 0.00 0.00
10:53 pm 22:53 Clear 75 23.9 71 21.7 88 88 Calm 29.92 1013 10 16 0.00 0.00
11:53 pm 23:53 Clear 75 23.9 72 22.2 90 90 Calm 29.90 1013 10 16 0.00 0.00

Powered by AerisWeather